OSCAR 7 1 07530U 74089B 10070.12080197 -.00000027 00000-0 10000-3 0 7249 2 07530 101.4091 089.7742 0012170 106.3522 253.8882 12.53577891616164 OSCAR 11 (UoSAT 2) 1 14781U 84021B 10070.17913676 .00000315 00000-0 48963-4 0 1955 2 14781 098.0679 121.5646 0008841 188.8477 171.2611 14.79776920397315 EGS (AJISAI) 1 16908U 86061A 10070.87841544 -.00000083 00000-0 10000-3 0 1598 2 16908 050.0101 055.9339 0011547 178.1592 181.9290 12.44463834740930 TDRS 3 1 19548U 88091B 10066.22586333 -.00000303 +00000-0 +10000-3 0 04512 2 19548 012.3311 037.2077 0036069 317.8471 202.2886 01.00270919065784 NAVSTAR 13 (USA 35) 1 19802U 89013A 10069.73062948 -.00000027 00000-0 10000-3 0 3602 2 19802 055.6163 296.0105 0047295 103.9195 256.6648 01.85321140149035 TDRS 4 1 19883U 89021B 10068.15535961 -.00000292 00000-0 10000-3 0 7658 2 19883 011.0753 048.7644 0007984 320.6343 167.4391 01.00268863249370 NAVSTAR 14 (USA 38) 1 20061U 89044A 10068.90600367 .00000010 00000-0 10000-3 0 255 2 20061 054.1264 091.8341 0020361 086.2918 274.0041 01.88857331149562 NAVSTAR 15 (USA 42) 1 20185U 89064A 10064.86129548 -.00000047 00000-0 10000-3 0 8026 2 20185 055.3796 293.7280 0013684 237.5799 122.3332 01.86084789145533 NAVSTAR 16 (USA 47) 1 20302U 89085A 10068.16808786 -.00000062 00000-0 10000-3 0 9966 2 20302 055.4042 034.3888 0008144 338.1983 021.7565 01.89423445145944 NAVSTAR 17 (USA 49) 1 20361U 89097A 10070.58126009 -.00000008 00000-0 10000-3 0 4958 2 20361 054.1314 222.0716 0016256 224.5244 135.3002 01.89175144136942 OSCAR 14 (UOSAT 3) 1 20437U 90005B 10070.82325650 .00000043 00000-0 31820-4 0 1581 2 20437 098.3786 024.1345 0011679 094.4051 265.8474 14.31566857 51340 OSCAR 16 (PACSAT) 1 20439U 90005D 10071.05637643 .00000043 00000-0 31621-4 0 8437 2 20439 098.3209 032.8434 0011949 094.2081 266.0473 14.31851643 51485 OSCAR 19 (LUSAT) 1 20442U 90005G 10070.93001455 .00000034 00000-0 27758-4 0 7539 2 20442 098.2803 038.9190 0012941 090.6321 269.6364 14.32084247 51638 NAVSTAR 18 (USA 50) 1 20452U 90008A 10069.85669030 -.00000110 00000-0 10000-3 0 3714 2 20452 056.4795 341.9939 0010492 199.3144 160.6715 01.89595652143583 JAS 1B (FUJI 2) 1 20480U 90013C 10070.57926570 -.00000040 00000-0 -75848-5 0 3960 2 20480 099.0477 306.4158 0539617 285.0982 069.1038 12.83363893941203 NAVSTAR 20 (USA 63) 1 20724U 90068A 10069.78865348 -.00000004 00000-0 10000-3 0 4616 2 20724 054.7539 283.6864 0046175 239.4472 120.1385 01.87181799138699 FENGYUN 1B 1 20788U 90081A 10070.17576391 -.00000128 00000-0 -53466-4 0 9306 2 20788 099.1395 092.9056 0015306 310.6592 049.3229 14.02367167998793 NAVSTAR 21 (USA 64) 1 20830U 90088A 10070.26914338 -.00000012 00000-0 10000-3 0 4254 2 20830 054.1329 217.1320 0017948 152.0034 208.0355 01.87754087141308 NAVSTAR 22 (USA 66) 1 20959U 90103A 10069.82736148 .00000013 00000-0 10000-3 0 6055 2 20959 055.0058 272.2576 0130422 301.2738 057.4893 02.00574180141253 COSMOS 2123 1 21089U 91007A 10071.07591901 .00000008 00000-0 -73746-5 0 4118 2 21089 082.9178 067.8291 0028110 305.8314 054.0230 13.74491776957998 NOAA 12 1 21263U 91032A 10070.37408694 .00000034 00000-0 33277-4 0 4862 2 21263 098.7700 083.5308 0013343 090.5086 269.7625 14.25620533978468 NAVSTAR 23 (USA 71) 1 21552U 91047A 10070.57099798 -.00000020 00000-0 10000-3 0 5991 2 21552 054.4043 210.2333 0050299 328.1065 031.5782 02.00420961136854 OSCAR 22 (UoSAT 5) 1 21575U 91050B 10070.40943737 .00000015 00000-0 18753-4 0 7802 2 21575 098.4820 021.0772 0006528 302.2947 057.7608 14.39706524979155 TDRS 5 1 21639U 91054B 10070.64414434 .00000099 00000-0 10000-3 0 6032 2 21639 010.4606 052.4241 0020700 320.7371 220.3248 01.00266637 68141 METEOR 3-5 1 21655U 91056A 10070.63612454 .00000051 00000-0 10000-3 0 7571 2 21655 082.5592 017.5502 0012377 229.8096 130.1895 13.17023723892834 NAVSTAR 24 (USA 79) 1 21890U 92009A 10070.03975266 -.00000082 00000-0 10000-3 0 6112 2 21890 055.7342 022.0933 0116275 291.3146 067.4662 02.00563308132223 NAVSTAR 26 (USA 83) 1 22014U 92039A 10069.74143360 -.00000092 00000-0 10000-3 0 5303 2 22014 056.7958 330.9919 0191498 060.8138 301.1241 02.00720918122986 OSCAR 23 (KITSAT 1) 1 22077U 92052B 10067.46040114 -.00000037 00000-0 10000-3 0 9759 2 22077 066.0845 133.1677 0010190 216.8036 143.2279 12.86451644825514 NAVSTAR 27 (USA 84) 1 22108U 92058A 10070.23512475 -.00000078 00000-0 10000-3 0 4203 2 22108 056.0136 024.2244 0219223 276.5930 080.9100 02.00564945128177 NAVSTAR 28 (USA 85) 1 22231U 92079A 10069.84424850 -.00000092 00000-0 10000-3 0 3730 2 22231 056.6868 331.6834 0080740 256.5158 102.6238 02.00579108126744 NAVSTAR 29 (USA 87) 1 22275U 92089A 10067.63037715 -.00000109 00000-0 10000-3 0 1843 2 22275 056.6045 333.1006 0040189 338.9264 020.9340 01.88249273125065 TDRS 6 1 22314U 93003B 10065.40294903 +.00000079 +00000-0 +10000-3 0 06335 2 22314 009.8078 055.4728 0010581 324.1901 118.1972 01.00279588062818 NAVSTAR 30 (USA 88) 1 22446U 93007A 10069.93953565 .00000022 00000-0 10000-3 0 2764 2 22446 054.0659 093.4457 0024255 288.7847 071.0153 01.88093044122282 NAVSTAR 31 (USA 90) 1 22581U 93017A 10070.16533714 -.00000033 00000-0 10000-3 0 88 2 22581 053.5244 150.8454 0007973 339.6436 020.3531 01.88947053122408 NAVSTAR 32 (USA 91) 1 22657U 93032A 10 70.48354009 .00000069 00000-0 10000-3 0 5760 2 22657 053.6419 143.1056 0097842 283.6429 075.3277 02.00548141119531 NAVSTAR 33 (USA 92) 1 22700U 93042A 10070.25092734 -.00000075 00000-0 10000-3 0 7635 2 22700 056.1261 025.6366 0204931 087.9803 274.3543 02.00572074122332 NAVSTAR 34 (USA 94) 1 22779U 93054A 10068.35523388 .00000003 00000-0 10000-3 0 3182 2 22779 054.4037 081.7114 0099747 079.4349 281.7249 02.00568290121050 METEOR 2-21 1 22782U 93055A 10070.16192409 .00000017 00000-0 25726-5 0 7187 2 22782 082.5510 330.2200 0021457 321.2790 038.6843 13.83644025834527 KITSAT B 1 22825U 93061C 10070.35668333 .00000023 00000-0 25726-4 0 4764 2 22825 098.4750 020.8895 0008338 191.5106 168.5902 14.29289216858074 POSAT 1 1 22826U 93061D 10070.01965423 .00000044 00000-0 34058-4 0 2127 2 22826 098.4679 021.2003 0008641 188.1490 171.9555 14.29543928858138 ITAMSAT 1 22828U 93061F 10070.83807725 -.00000057 00000-0 -55140-5 0 4101 2 22828 098.4615 021.8386 0010219 160.2194 199.9391 14.29840057826536 NAVSTAR 35 (USA 96) 1 22877U 93068A 10069.39510808 -.00000017 00000-0 10000-3 0 930 2 22877 053.8232 207.5189 0090239 034.7504 325.7935 02.00566323119966 NAVSTAR 36 (USA 100) 1 23027U 94016A 10069.10294271 -.00000036 00000-0 10000-3 0 902 2 23027 053.5283 144.5397 0062193 294.0143 065.3814 02.00564039117262 RADIO ROSTO 1 23439U 94085A 10067.81241408 -.00000039 +00000-0 +10000-3 0 02887 2 23439 064.8127 196.8815 0156556 002.2526 357.9069 11.27554893625955 NOAA 14 1 23455U 94089A 10070.40647839 -.00000034 00000-0 55175-5 0 9781 2 23455 098.8823 151.8146 0009722 148.6658 211.5097 14.13780133783681 ORBCOMM FM 1 1 23545U 95017A 10070.49924674 .00000529 00000-0 12027-3 0 4495 2 23545 069.9716 229.7870 0010722 224.9030 135.1235 14.61427037793123 ORBCOMM FM 2 1 23546U 95017B 10070.40545445 .00000461 00000-0 10678-3 0 5061 2 23546 069.9749 232.1127 0011395 211.6473 148.3989 14.61343518793127 TDRS 7 1 23613U 95035B 10067.69736793 -.00000202 +00000-0 +00000-0 0 06869 2 23613 011.5894 045.2720 0034667 317.5441 139.4030 01.00269614053643 NAVSTAR 37 (USA 117) 1 23833U 96019A 10070.11392515 -.00000021 00000-0 10000-3 0 2798 2 23833 053.1145 140.4953 0127457 057.1267 304.1457 02.00560659102268 NAVSTAR 38 (USA 126) 1 23953U 96041A 10070.01072372 .00000015 00000-0 10000-3 0 7619 2 23953 054.6833 268.6522 0091093 036.5693 324.0782 02.00588496100052 JAS 2 1 24278U 96046B 10069.60064733 -.00000073 00000-0 -38737-4 0 2653 2 24278 098.5205 272.3325 0351245 019.7105 341.7226 13.52947854669779 NAVSTAR 39 (USA 128) 1 24320U 96056A 10069.88646260 .00000020 00000-0 10000-3 0 5018 2 24320 054.7291 084.8407 0117199 084.4117 276.9805 02.00551647 98717 FENGYUN 2A 1 24834U 97029A 10067.54541419 -.00000071 +00000-0 +10000-3 0 04678 2 24834 009.0381 059.6331 0093941 079.6402 281.5087 00.96050583046305 NAVSTAR 43 (USA 132) 1 24876U 97035A 10069.98265369 -.00000090 00000-0 10000-3 0 2509 2 24876 056.9205 331.1613 0039405 094.3238 266.1654 02.00574628 92582 NAVSTAR 44 (USA 134) 1 25030U 97067A 10070.11474857 -.00000063 00000-0 10000-3 0 1620 2 25030 056.8458 031.2709 0109400 178.9465 181.0779 02.00559015 90485 ORBCOMM FM 8 1 25112U 97084A 10068.48160430 .00000396 00000-0 18913-3 0 4707 2 25112 045.0163 187.4870 0007303 330.4330 029.6085 14.34381135638343 ORBCOMM FM 10 1 25113U 97084B 10070.74510966 .00000438 00000-0 20387-3 0 2009 2 25113 045.0178 177.6390 0005170 301.4428 058.5918 14.34397414638662 ORBCOMM FM 11 1 25114U 97084C 10070.80567710 -.00003383 00000-0 -11422-2 0 1323 2 25114 045.0180 176.9809 0006201 311.8546 048.1697 14.34392952638677 ORBCOMM FM 12 1 25115U 97084D 10070.78858082 .00000010 00000-0 53316-4 0 1272 2 25115 045.0181 176.8109 0004833 312.5241 047.5172 14.34376055638677 ORBCOMM FM 9 1 25116U 97084E 10070.79752689 -.00006900 00000-0 -23825-2 0 2929 2 25116 045.0198 177.1579 0005376 297.3128 062.7073 14.34400573638670 ORBCOMM FM 5 1 25117U 97084F 10070.76245781 -.00000116 00000-0 89232-5 0 2285 2 25117 045.0187 177.5928 0001500 301.2513 058.8187 14.34387902638660 ORBCOMM FM 6 1 25118U 97084G 10070.75353652 -.00007425 00000-0 -25696-2 0 1160 2 25118 045.0179 177.5047 0000462 280.5764 079.5015 14.34368253638665 ORBCOMM FM 7 1 25119U 97084H 10070.70152017 .00000274 00000-0 14625-3 0 3850 2 25119 045.0172 177.9531 0002994 304.0343 056.0227 14.34391939638659 NOAA 15 1 25338U 98030A 10070.19135785 .00000102 00000-0 62352-4 0 2974 2 25338 098.6126 058.9095 0010700 005.8737 354.2547 14.24811443614798 RESURS O1-N4 1 25394U 98043A 10070.69328570 -.00000006 00000-0 15205-4 0 4512 2 25394 098.3137 094.0490 0001978 120.3453 239.7919 14.24194741606475 TMSAT 1 25396U 98043C 10070.60721034 -.00000017 00000-0 10507-4 0 6443 2 25396 098.3148 089.3641 0002835 149.4275 210.7066 14.23796512606353 TECHSAT 1B 1 25397U 98043D 10070.09500669 -.00000101 00000-0 -26781-4 0 1324 2 25397 098.3164 082.9393 0001572 149.8021 210.3268 14.23172426606098 ORBCOMM FM 17 1 25413U 98046A 10070.51043740 .00000039 00000-0 71375-4 0 2592 2 25413 044.9969 095.9538 0004045 259.0530 100.9853 14.27594072604898 ORBCOMM FM 18 1 25414U 98046B 10071.05036232 -.00000187 00000-0 -19437-4 0 2059 2 25414 044.9962 092.9737 0006393 251.6109 108.4034 14.27864051604978 ORBCOMM FM 19 1 25415U 98046C 10070.36069679 -.00000082 00000-0 22784-4 0 2427 2 25415 044.9953 096.3959 0005212 246.9247 113.0968 14.27861051604876 ORBCOMM FM 20 1 25416U 98046D 10070.09085074 .00000460 00000-0 23985-3 0 6847 2 25416 044.9962 097.8324 0003998 258.5088 101.5291 14.27853486604795 ORBCOMM FM 16 1 25417U 98046E 10070.10080683 .00000335 00000-0 18988-3 0 2878 2 25417 044.9988 098.7682 0004731 265.1681 094.8630 14.27840004604838 ORBCOMM FM 15 1 25418U 98046F 10070.39067880 .00000269 00000-0 16350-3 0 3355 2 25418 044.9993 097.6403 0005611 266.0777 093.9441 14.27855457604870 ORBCOMM FM 14 1 25419U 98046G 10070.40067169 .00000149 00000-0 11545-3 0 2995 2 25419 044.9987 097.5289 0004472 254.5546 105.4793 14.27853531604875 ORBCOMM FM 13 1 25420U 98046H 10071.11031815 .00000018 00000-0 62945-4 0 1822 2 25420 045.0010 094.5955 0005867 262.1449 097.8766 14.27853136605000 ORBCOMM FM 21 1 25475U 98053A 10070.51312583 -.00000106 00000-0 12994-4 0 2433 2 25475 045.0099 183.3812 0005625 179.2514 180.8350 14.29023869598051 ORBCOMM FM 22 1 25476U 98053B 10070.68849605 .00000374 00000-0 20082-3 0 9239 2 25476 045.0087 182.9543 0003810 202.2667 157.7995 14.29029092598068 ORBCOMM FM 23 1 25477U 98053C 10070.74578930 .00000256 00000-0 15473-3 0 2327 2 25477 045.0098 182.4129 0003830 198.6453 161.4247 14.29024226598245 ORBCOMM FM 24 1 25478U 98053D 10070.73503013 .00000029 00000-0 66074-4 0 8099 2 25478 045.0113 182.7100 0002950 205.6803 154.3892 14.29030857598228 ORBCOMM FM 25 1 25479U 98053E 10070.76927317 .00000303 00000-0 17313-3 0 1066 2 25479 045.0090 181.9087 0004547 222.5954 137.4540 14.29018621598224 ORBCOMM FM 26 1 25480U 98053F 10070.69645687 .00000162 00000-0 11734-3 0 1825 2 25480 045.0082 172.7568 0006704 255.2748 104.7352 14.29319921598315 ORBCOMM FM 27 1 25481U 98053G 10070.71116258 -.00000059 00000-0 31574-4 0 7182 2 25481 045.0091 181.8638 0002966 180.8822 179.2013 14.29027452598212 ORBCOMM FM 28 1 25482U 98053H 10070.23336939 -.00000017 00000-0 47083-4 0 8299 2 25482 045.0108 155.0951 0005380 244.0012 116.0271 14.30151275598511 PAN SAT 1 25520U 98064B 10069.89073946 .00000639 00000-0 21415-4 0 4476 2 25520 028.4589 268.7352 0005066 329.1035 030.9255 15.17493428629202 OSCAR 36 (UOSAT 12) 1 25693U 99021A 10070.67223298 .00000112 00000-0 34487-4 0 1461 2 25693 064.5601 014.0605 0026976 323.2065 036.7214 14.78785813587393 FENGYUN 1C 1 25730U 99025A 10070.82263743 .00000288 00000-0 19320-3 0 9935 2 25730 098.7788 038.3361 0023215 179.4005 180.7223 14.08181152557987 NAVSTAR 46 (USA 145) 1 25933U 99055A 10068.76148984 -.00000033 00000-0 10000-3 0 7025 2 25933 050.9148 194.2214 0103797 045.1167 315.6868 02.00556423 76372 ORBCOMM FM 30 1 25980U 99065A 10071.18517382 -.00000083 00000-0 22096-4 0 7642 2 25980 045.0365 345.3152 0005213 033.9547 326.1640 14.28904467535611 ORBCOMM FM 31 1 25981U 99065B 10070.89275718 -.00000163 00000-0 -93851-5 0 8643 2 25981 045.0264 344.1651 0004248 035.1223 324.9856 14.28913236535566 ORBCOMM FM 32 1 25982U 99065C 10070.78992210 .00000164 00000-0 11807-3 0 7956 2 25982 045.0245 343.6266 0006109 048.2341 311.9042 14.29343499535568 ORBCOMM FM 33 1 25983U 99065D 10070.77982402 .00000236 00000-0 14750-3 0 7688 2 25983 045.0333 346.8772 0003835 021.0385 339.0623 14.28890101535544 ORBCOMM FM 36 1 25984U 99065E 10070.80857783 .00000194 00000-0 13073-3 0 7956 2 25984 045.0410 348.5146 0005221 319.1748 040.8729 14.28909608535558 ORBCOMM FM 35 1 25985U 99065F 10071.07346059 .00000240 00000-0 14911-3 0 8265 2 25985 045.0438 348.1533 0003153 021.5149 338.5803 14.28909336535598 ORBCOMM FM 34 1 25986U 99065G 10071.12908546 .00000102 00000-0 94989-4 0 7762 2 25986 045.0428 347.3501 0005325 008.1120 351.9788 14.28908940535600 OPAL 1 26063U 00004C 10070.10306263 -.00000034 00000-0 87045-5 0 7489 2 26063 100.2275 270.8204 0036651 229.7175 130.0799 14.35887086530257 NAVSTAR 47 (USA 150) 1 26360U 00025A 10070.35939136 .00000012 00000-0 10000-3 0 7974 2 26360 053.7524 265.6111 0041207 073.3668 287.1070 02.00564663 72101 FENGYUN 2B 1 26382U 00032A 10064.83832104 -.00000273 +00000-0 +10000-3 0 02446 2 26382 004.9767 069.2045 0003642 262.4752 097.6717 01.00098380035481 CHAMP 1 26405U 00039B 10071.13598405 .00039114 -73987-6 11351-3 0 1426 2 26405 087.2196 204.0068 0002231 092.0106 268.1456 15.92719699552167 NAVSTAR 48 (USA 151) 1 26407U 00040A 10069.19642864 .00000017 00000-0 10000-3 0 7438 2 26407 055.5457 089.3094 0160708 247.4662 110.8776 02.00564721 70754 NOAA 16 1 26536U 00055A 10070.26464716 -.00000309 00000-0 -14176-3 0 7754 2 26536 099.1771 085.4027 0009731 250.3111 109.7014 14.12547260488001 SAUDISAT 1A 1 26545U 00057A 10070.89124994 .00000051 00000-0 25595-4 0 4797 2 26545 064.5591 012.6255 0050259 237.6605 121.9644 14.80661203510830 TIUNGSAT 1 1 26548U 00057D 10070.75332655 -.00000027 00000-0 15117-4 0 6368 2 26548 064.5564 332.5307 0043316 236.0178 123.6789 14.83450723511644 SAUDISAT 1B 1 26549U 00057E 10070.92566005 .00000072 00000-0 28866-4 0 5673 2 26549 064.5579 030.6438 0055379 238.8969 120.6700 14.79515038510478 NAVSTAR 49 (USA 154) 1 26605U 00071A 10069.79460384 -.00000090 00000-0 10000-3 0 7503 2 26605 056.5407 329.9478 0051453 241.4410 118.0778 02.00559507 68362 NAVSTAR 50 (USA 156) 1 26690U 01004A 10070.16008796 .00000011 00000-0 10000-3 0 6345 2 26690 053.7654 268.7064 0111155 226.2985 132.7953 02.00563515 66780 PICOSAT 9 1 26930U 01043B 10070.50896922 -.00000092 00000-0 -33811-5 0 3861 2 26930 067.0006 071.8892 0010838 261.6632 098.3257 14.30064123440963 PCSAT 1 26931U 01043C 10070.18899589 -.00000197 00000-0 -44565-4 0 4064 2 26931 067.0516 096.4608 0006520 263.6833 096.3500 14.29585396440749 SAPPHIRE 1 26932U 01043D 10070.63334434 .00000123 00000-0 80247-4 0 4118 2 26932 067.0562 095.3526 0008379 261.8807 098.1339 14.29630371440859 FENGYUN 1D 1 27431U 02024B 10070.52286185 -.00000013 00000-0 16422-4 0 8252 2 27431 098.6579 054.4569 0015641 019.3609 340.8141 14.09290301402467 NOAA 17 1 27453U 02032A 10070.33862255 .00000088 00000-0 56147-4 0 7801 2 27453 098.4446 124.6684 0012671 065.6750 294.5780 14.24137896400773 MOZHAYETS 1 27560U 02054B 10071.04926283 .00000051 00000-0 21581-4 0 1757 2 27560 097.9219 265.1786 0044059 096.1462 264.4778 14.55079017385704 SAUDISAT 1C 1 27607U 02058C 10070.07802265 .00000065 00000-0 31996-4 0 1226 2 27607 064.5589 294.5066 0037204 122.8962 237.5743 14.71508405387946 NAVSTAR 51 (USA 166) 1 27663U 03005A 10070.01323622 .00000026 00000-0 10000-3 0 127 2 27663 055.6481 088.8289 0057423 342.9607 016.9047 02.00558300 52131 NAVSTAR 52 (USA 168) 1 27704U 03010A 10 70.58212288 .00000000 00000-0 10000-3 0 9206 2 27704 053.4467 208.1127 0162396 216.5761 142.2715 02.00560892 50938 NAVSTAR 53 (USA 175) 1 28129U 03058A 10070.70236308 .00000008 00000-0 10000-3 0 5184 2 28129 053.6340 268.9651 0058053 237.2035 122.2617 02.00564832 45645 NAVSTAR 54 (USA 177) 1 28190U 04009A 10071.15062451 -.00000017 00000-0 10000-3 0 4679 2 28190 054.8750 151.7087 0062699 347.8467 012.0463 02.00559656 43822 NAVSTAR 55 (USA 178) 1 28361U 04023A 10069.94443347 -.00000087 00000-0 10000-3 0 2907 2 28361 055.4954 327.7876 0063524 175.5379 184.5623 02.00558340 41888 APRIZESAT 2 1 28366U 04025A 10070.50739247 -.00000035 00000-0 20055-5 0 5858 2 28366 098.1106 056.1072 0110373 083.6635 277.7098 14.35599149298581 UNISAT 3 1 28373U 04025H 10070.52030507 .00000084 00000-0 36342-4 0 6052 2 28373 098.0353 077.6241 0071287 010.1675 350.0945 14.43369856300700 AMSAT ECHO 1 28375U 04025K 10070.98517752 .00000036 00000-0 23476-4 0 6248 2 28375 098.0585 070.0354 0085137 032.5566 328.0833 14.40673101299512 NAVSTAR 56 (USA 180) 1 28474U 04045A 10070.44220521 -.00000025 00000-0 10000-3 0 1732 2 28474 053.8710 206.4468 0093752 171.4102 188.7091 02.00550550 39258 HAMSAT 1 28650U 05017B 10070.89007245 -.00000016 00000-0 45242-5 0 4532 2 28650 097.7043 128.0673 0026201 232.9386 126.9406 14.81696584262284 NAVSTAR 57 (USA 183) 1 28874U 05038A 10070.29473846 -.00000025 00000-0 10000-3 0 4364 2 28874 055.0107 148.5733 0052456 214.6029 145.0956 02.00575669 32674 SSETI-EXPRESS 1 28894U 05043E 10070.26928276 .00000051 00000-0 20220-4 0 7111 2 28894 098.0245 317.4351 0016593 232.7394 127.2297 14.59711985232815 MOZ.5/SAFIR/RUBIN 5/SL-8 1 28898U 05043G 10070.28561992 -.00000034 00000-0 23358-5 0 5537 2 28898 098.0096 313.2094 0017725 244.9686 114.9666 14.58597656232637 NAVSTAR 58 (USA 190) 1 29486U 06042A 10 70.39870163 .00000000 00000-0 10000-3 0 7594 2 29486 055.9330 027.4167 0077633 297.3022 061.9065 02.00568395 25365 NAVSTAR 59 (USA 192) 1 29601U 06052A 10069.84874184 .00000024 00000-0 10000-3 0 8068 2 29601 055.5749 087.8404 0035339 325.7235 034.1068 02.00555354 24272 PEHUENSAT 1 1 29712U 07001D 10071.22558031 .00000572 00000-0 80503-4 0 1697 2 29712 097.7936 125.7657 0015069 120.5288 239.7427 14.80914826171134 NAVSTAR 60 (USA 196) 1 32260U 07047A 10069.14978920 -.00000090 00000-0 00000+0 0 5385 2 32260 054.6848 326.4476 0024133 338.2959 021.6432 02.00557236 17651 NAVSTAR 61 (USA 199) 1 32384U 07062A 10 70.47120822 .00000000 00000-0 10000-3 0 5652 2 32384 055.0250 149.0373 0031926 283.9607 075.7340 02.00553315 16403 NAVSTAR 62 (USA 201) 1 32711U 08012A 10069.56998271 -.00000072 00000-0 10000-3 0 4267 2 32711 055.6256 027.4947 0032503 180.4906 179.4982 02.00557972 14595 DELFI C3 1 32789U 08021G 10070.35414063 .00001078 00000-0 14232-3 0 6273 2 32789 097.9097 136.8939 0014764 240.9945 118.9831 14.82004725101013